This is the latest recevied weather packets stored in our database for station/object W4MSI. If no packets are shown the sender has not sent any weather packets the latest 10 day(s).
| Time | Temp. | Humidity | Pressure | Rain* | Wind** | Luminosity | Snow |
|---|---|---|---|---|---|---|---|
| 1777408571 | 25.56° C | 70% | 1013 hPa | 0 mm | - | 179 W/m² | - |
| 1777408266 | 25.56° C | 69% | 1013 hPa | 0 mm | - | 175 W/m² | - |
| 1777407966 | 26.67° C | 67% | 1013.6 hPa | 0 mm | - | 508 W/m² | - |
| 1777407664 | 26.11° C | 72% | 1013.5 hPa | 0 mm | - | 398 W/m² | - |
| 1777407364 | 26.11° C | 68% | 1013.5 hPa | 0 mm | - | 333 W/m² | - |
| 1777407059 | 26.11° C | 69% | 1013.7 hPa | 0 mm | - | 621 W/m² | - |
| 1777406755 | 25° C | 72% | 1014 hPa | 0 mm | - | 696 W/m² | - |
| 1777406450 | 25° C | 70% | 1014 hPa | 0 mm | - | 228 W/m² | - |
| 1777406150 | 25.56° C | 72% | 1014.3 hPa | 0 mm | - | 380 W/m² | - |
| 1777405845 | 25.56° C | 70% | 1014.5 hPa | 0 mm | - | 375 W/m² | - |
| 1777405542 | 25.56° C | 70% | 1014.5 hPa | 0 mm | - | 346 W/m² | - |
| 1777405239 | 25.56° C | 70% | 1014.6 hPa | 0 mm | - | 749 W/m² | - |
| 1777404938 | 25.56° C | 73% | 1014.6 hPa | 0 mm | - | 559 W/m² | - |
| 1777404634 | 25° C | 74% | 1014.5 hPa | 0 mm | - | 608 W/m² | - |
| 1777404330 | 25° C | 71% | 1014.5 hPa | 0 mm | - | 587 W/m² | - |
| 1777404027 | 24.44° C | 74% | 1014.7 hPa | 0 mm | - | 630 W/m² | - |
| 1777403722 | 24.44° C | 74% | 1014.8 hPa | 0 mm | - | 357 W/m² | - |
| 1777403421 | 24.44° C | 75% | 1014.8 hPa | 0 mm | - | 397 W/m² | - |
| 1777403115 | 24.44° C | 73% | 1014.8 hPa | 0 mm | - | 268 W/m² | - |
| 1777402812 | 24.44° C | 73% | 1014.9 hPa | 0 mm | - | 313 W/m² | - |
| 1777402509 | 24.44° C | 74% | 1015.3 hPa | 0 mm | - | 242 W/m² | - |
| 1777402206 | 24.44° C | 74% | 1015.1 hPa | 0 mm | - | 807 W/m² | - |
| 1777401906 | 24.44° C | 75% | 1015.1 hPa | 0 mm | - | 381 W/m² | - |
| 1777401605 | 24.44° C | 73% | 1015.1 hPa | 0 mm | - | 928 W/m² | - |
| 1777401302 | 24.44° C | 74% | 1015.1 hPa | 0 mm | - | 913 W/m² | - |
* Rain latest hour (hover to see other rain measurements)
** Current wind speed in m/s (hover to see current wind gust speed)